Tracking 29033 objects as of 22-Jun-2024
HD Live streaming from Space Station
objects crossing your sky now

STARLINK-5770

Track STARLINK-5770 now!
10-day predictions
STARLINK-5770 is classified as:


NORAD ID: 56026
Int'l Code: 2023-042AS
Perigee: 565.3 km
Apogee: 567.2 km
Inclination: 43.0 °
Period: 95.8 minutes
Semi major axis: 6937 km
RCS: Unknown
Launch date: March 24, 2022
Source: United States (US)
Launch site: AIR FORCE EASTERN TEST RANGE (AFETR)
Your satellite tracking list
Your tracking list is empty




NASA's NSSDC Master Catalog

Two Line Element Set (TLE):
1 56026U 23042AS  24174.15819409  .00000840  00000-0  77280-4 0  9995
2 56026  43.0035 202.1060 0001361 264.6500  95.4187 15.02536704 69306
Source of the keplerian elements: AFSPC